[[{"header":{"parameterUnit":"m.s-1","parameterCategory":1,"la1":30.2991,"la2":30.254,"lo1":-89.0895,"lo2":-89.0444,"dy":0.0017,"dx":0.0017,"nx":28,"ny":28,"refTime":"2023-04-26T21:00:00:Z","depth":0,"parameterNumber":2,"parameterNumberName":"U-component_of_WINDS"},"data":[0,0,0,0,0,0,0,0,0,0,0,0,0,0,0,0,0,0,0,0,0,0,0,0,0,0,0,0,0,0,0,0,0,0,0,0,0,0,0,0,0,0,0,0,0,0,0,0,0,0,0,0,0,0,0,0,0,0,1.1429,1.1429,0,1.1463,1.1463,1.1464,1.1527,1.1528,1.153,1.1531,1.1567,1.1567,1.1566,0,0,0,0,0,0,0,0,0,0,0,0,0,1.1423,1.1423,1.1429,1.1429,1.143,1.1463,1.1463,1.1464,1.1527,1.1529,1.153,1.1531,1.1567,1.1567,1.1566,0,0,0,0,0,0,0,0,0,0,0,0,0,1.1438,1.1423,1.1429,1.1465,1.1469,1.1463,1.1463,1.1464,1.1527,1.1529,1.153,1.1532,1.1567,1.1567,1.1566,1.1528,0,0,1.1565,1.1565,0,0,0,0,0,0,0,0,1.1437,1.1438,1.146,1.1463,1.1467,1.1493,1.1474,1.1485,1.1526,1.1505,1.1531,1.1533,1.1541,1.1543,1.1545,1.1529,1.1531,1.1565,1.1565,1.1565,1.1565,0,0,0,0,0,0,0,1.1436,1.1437,1.1443,1.146,1.1464,1.1481,1.1485,1.1477,1.1512,1.1507,1.1511,1.1515,1.1543,1.1545,1.1546,1.1532,1.1565,1.1565,1.1565,1.1565,1.149,1.1488,0,0,0,0,0,0,1.1429,1.1436,1.1441,1.1444,1.1456,1.148,1.1485,1.1483,1.1512,1.1519,1.1513,1.1517,1.1545,1.1547,1.1548,1.1507,1.1565,1.1565,1.1565,1.1492,1.149,1.1488,0,0,0,0,0,0,1.1429,1.1429,1.144,1.1441,1.1444,1.1478,1.1475,1.1482,1.1484,1.1517,1.1524,1.1508,1.1546,1.1548,1.1533,1.1509,1.1565,1.1565,1.1494,1.1491,1.1489,1.1422,0,0,0,0,0,0,1.1428,1.1429,1.1413,1.144,1.1443,1.1423,1.1474,1.1482,1.1484,1.149,1.1514,1.152,1.1548,1.1533,1.1533,1.1509,1.1564,1.1496,1.1493,1.149,1.1427,1.1418,1.141,0,0,0,0,0,1.1428,1.1392,1.1412,1.1412,1.1424,1.1421,1.1423,1.1455,1.1481,1.1467,1.1489,1.152,1.1512,1.1531,1.1531,1.1507,1.1498,1.1494,1.149,1.1431,1.142,1.141,0,0,0,0,0,0,1.1361,1.1396,1.1418,1.139,1.1402,1.1432,1.1414,1.1442,1.1447,1.1453,1.1493,1.1498,1.1478,1.1492,1.1512,1.1474,1.151,1.1506,1.1465,1.1455,1.1446,1.1443,1.1564,0,0,0,0,0,1.1343,1.1336,1.1368,1.1341,1.1346,1.1379,1.1379,1.1403,1.1417,1.1423,1.1443,1.1456,1.1458,1.1457,1.146,1.143,1.1438,1.1414,1.1406,1.1398,1.1394,1.1382,1.1373,1.1474,1.1474,1.1475,0,0,1.1305,1.1324,1.1317,1.1328,1.134,1.1334,1.1383,1.1374,1.137,1.1422,1.1409,1.1425,1.1443,1.1421,1.1412,1.1431,1.1368,1.1393,1.1387,1.1387,1.1377,1.1367,1.1359,1.1472,1.1472,1.1473,0,0,1.1234,1.1247,1.1226,1.1238,1.1257,1.128,1.1275,1.1301,1.1314,1.1302,1.1341,1.1339,1.1339,1.1351,1.1357,1.1295,1.1324,1.1295,1.125,1.1238,1.123,1.1223,1.1202,1.1194,1.129,1.129,1.129,0,1.1184,1.1176,1.1212,1.1201,1.1206,1.1254,1.1234,1.1245,1.1263,1.1265,1.1287,1.129,1.1306,1.1288,1.1274,1.1277,1.1274,1.1291,1.1228,1.1221,1.1216,1.1196,1.1188,1.1287,1.1287,1.1287,1.1288,0,1.1116,1.111,1.1091,1.1108,1.1111,1.1096,1.1132,1.1131,1.1156,1.1177,1.1166,1.1187,1.1196,1.1194,1.1218,1.1181,1.1193,1.122,1.1258,1.1201,1.1184,1.1177,1.1281,1.1283,1.1284,1.1285,0,0,1.0999,1.104,1.1032,1.1042,1.1068,1.1065,1.1054,1.1063,1.1061,1.1074,1.1066,1.1068,1.1095,1.1102,1.1128,1.1117,1.1069,1.1147,1.1148,1.1132,1.1033,1.1011,1.1002,1.109,1.1089,1.1088,1.1032,0,1.0933,1.0915,1.0949,1.0924,1.092,1.0968,1.0958,1.0974,1.0995,1.0996,1.102,1.1021,1.1055,1.1061,1.1052,1.1077,1.105,1.1081,1.1084,1.1084,1.1078,1.0993,1.0969,1.0915,1.1025,1.1024,1.1023,0,1.0853,1.0862,1.0836,1.0867,1.0867,1.0857,1.087,1.0871,1.0891,1.0907,1.0917,1.0949,1.0942,1.0979,1.0972,1.0993,1.0997,1.101,1.1009,1.1009,1.1049,1.0991,1.0898,1.089,1.1012,1.1013,1.1014,0,1.0772,1.0778,1.0764,1.0771,1.0806,1.0799,1.0813,1.0836,1.084,1.0852,1.0856,1.0867,1.0873,1.0882,1.0917,1.094,1.0906,1.0945,1.092,1.0919,1.0909,1.0909,1.0815,1.0912,1.0913,1.0913,1.0913,0,1.0694,1.0676,1.0728,1.0719,1.0702,1.0744,1.0726,1.0746,1.0766,1.0763,1.0806,1.0803,1.0849,1.0852,1.088,1.087,1.0873,1.0887,1.0894,1.0882,1.0881,1.0885,1.0889,1.0911,1.0911,1.0911,1.0912,0,1.0599,1.0633,1.0621,1.0656,1.0665,1.0651,1.0682,1.0677,1.0702,1.0699,1.07,1.074,1.0746,1.0782,1.0796,1.0815,1.0796,1.0811,1.0789,1.0793,1.0767,1.0769,1.0671,1.0662,1.0765,1.0764,1.0763,0,1.0546,1.0534,1.0569,1.0571,1.0583,1.0585,1.059,1.0632,1.0636,1.0661,1.0653,1.0663,1.0672,1.068,1.0711,1.0723,1.0738,1.0704,1.074,1.073,1.0738,1.0738,1.0738,1.0695,1.0694,1.0693,1.0692,0,1.045,1.0469,1.0474,1.0487,1.0493,1.0504,1.0519,1.0518,1.0565,1.0568,1.0575,1.0582,1.0598,1.0608,1.0626,1.0643,1.0675,1.0681,1.0676,1.0663,1.0651,1.0658,1.0767,1.0682,1.0683,1.0684,1.0684,1.0685,1.0375,1.0368,1.0392,1.0398,1.0414,1.0428,1.0425,1.0451,1.0457,1.0473,1.0498,1.0502,1.0527,1.0555,1.0569,1.0574,1.0593,1.0585,1.0583,1.0581,1.0575,1.0651,1.0578,1.0578,1.0579,1.0579,1.0579,0,1.0282,1.0301,1.0306,1.0326,1.0331,1.0363,1.0382,1.0385,1.0388,1.0408,1.0418,1.0427,1.0438,1.0471,1.0486,1.0483,1.0499,1.0486,1.0486,1.049,1.0557,1.056,1.0473,1.0473,1.0473,1.0473,1.0473,1.0473,1.0233,1.0223,1.0245,1.0244,1.0264,1.0268,1.0277,1.029,1.0307,1.0316,1.0325,1.0347,1.0374,1.0391,1.0403,1.0413,1.0416,1.0398,1.0413,1.0475,1.0485,1.0494,1.0498,1.0398,1.0398,1.0345,1.0345,1.0344]},{"header":{"parameterUnit":"m.s-1","parameterCategory":1,"la1":30.2991,"la2":30.254,"lo1":-89.0895,"lo2":-89.0444,"dy":0.0017,"dx":0.0017,"nx":28,"ny":28,"refTime":"2023-04-26T21:00:00:Z","depth":0,"parameterNumber":3,"parameterNumberName":"V-component_of_WINDS"},"data":[0,0,0,0,0,0,0,0,0,0,0,0,0,0,0,0,0,0,0,0,0,0,0,0,0,0,0,0,0,0,0,0,0,0,0,0,0,0,0,0,0,0,0,0,0,0,0,0,0,0,0,0,0,0,0,0,0,0,3.5249,3.525,0,3.5348,3.5349,3.535,3.5369,3.5368,3.5368,3.5367,3.5464,3.5467,3.547,0,0,0,0,0,0,0,0,0,0,0,0,0,3.5068,3.5072,3.5249,3.525,3.5252,3.5348,3.5349,3.5351,3.5369,3.5368,3.5367,3.5366,3.5463,3.5466,3.547,0,0,0,0,0,0,0,0,0,0,0,0,0,3.5155,3.5073,3.5249,3.5273,3.5276,3.5348,3.5349,3.5351,3.5369,3.5368,3.5367,3.5366,3.5461,3.5466,3.5471,3.5525,0,0,3.5486,3.5488,0,0,0,0,0,0,0,0,3.515,3.5162,3.5268,3.5271,3.5275,3.5345,3.5321,3.5409,3.537,3.5334,3.5367,3.5365,3.5425,3.5433,3.5454,3.553,3.5534,3.5487,3.549,3.5492,3.5493,0,0,0,0,0,0,0,3.5144,3.5157,3.5288,3.5269,3.5273,3.5276,3.5287,3.5338,3.5384,3.5337,3.5338,3.535,3.5426,3.5449,3.5456,3.5535,3.5486,3.5491,3.5494,3.5496,3.5656,3.5657,0,0,0,0,0,0,3.5135,3.5152,3.5285,3.5291,3.5208,3.528,3.5292,3.5324,3.5384,3.5392,3.5351,3.5351,3.5441,3.545,3.546,3.5525,3.5492,3.5496,3.5499,3.5655,3.5656,3.5658,0,0,0,0,0,0,3.5131,3.5146,3.5281,3.5222,3.524,3.5284,3.5319,3.5326,3.5349,3.5395,3.5403,3.5366,3.544,3.5453,3.5508,3.5528,3.5499,3.5503,3.5653,3.5655,3.5657,3.5657,0,0,0,0,0,0,3.5126,3.5145,3.5168,3.5223,3.5243,3.533,3.5321,3.5329,3.5358,3.5358,3.5411,3.5418,3.544,3.5501,3.5513,3.5535,3.5507,3.5651,3.5654,3.5656,3.5655,3.5658,3.5661,0,0,0,0,0,3.5119,3.5164,3.5169,3.5185,3.5273,3.5331,3.5342,3.5368,3.536,3.5382,3.541,3.5417,3.5524,3.5506,3.552,3.5544,3.565,3.5653,3.5656,3.5654,3.5658,3.5661,0,0,0,0,0,0,3.511,3.5172,3.5178,3.5242,3.5281,3.5334,3.5364,3.5372,3.5414,3.5412,3.5441,3.5452,3.5505,3.553,3.5509,3.5597,3.5586,3.5592,3.5579,3.5584,3.5587,3.5579,3.5511,0,0,0,0,0,3.5115,3.516,3.521,3.5262,3.5281,3.5319,3.5345,3.5362,3.5403,3.5419,3.5452,3.549,3.5532,3.5559,3.5601,3.5658,3.5668,3.5681,3.5684,3.5686,3.5691,3.572,3.5725,3.5667,3.5667,3.5667,0,0,3.5127,3.5166,3.5192,3.5261,3.5293,3.5336,3.5333,3.5379,3.541,3.5425,3.548,3.5505,3.5549,3.5605,3.5631,3.5627,3.5709,3.569,3.5691,3.5695,3.5723,3.5729,3.5734,3.5669,3.5669,3.5668,0,0,3.517,3.5205,3.5251,3.5283,3.5332,3.5356,3.5366,3.5417,3.5435,3.549,3.5501,3.5537,3.561,3.564,3.5665,3.5714,3.5721,3.5727,3.5743,3.5771,3.5775,3.5779,3.5795,3.5801,3.5731,3.5731,3.5731,0,3.5178,3.5245,3.5273,3.5318,3.5346,3.5362,3.5406,3.5436,3.5495,3.5513,3.5507,3.5596,3.5627,3.5689,3.5701,3.5721,3.5732,3.5721,3.5773,3.5777,3.5781,3.5797,3.5803,3.5731,3.5731,3.5731,3.5731,0,3.5251,3.5297,3.5328,3.5385,3.5417,3.5461,3.5492,3.552,3.5533,3.5556,3.561,3.5647,3.5695,3.571,3.5723,3.5773,3.5768,3.5767,3.5757,3.5787,3.5802,3.5808,3.5732,3.5732,3.5732,3.5732,0,0,3.5294,3.5364,3.5374,3.5399,3.5452,3.5487,3.553,3.5578,3.56,3.5639,3.5674,3.5734,3.5732,3.576,3.5775,3.58,3.5834,3.5796,3.5797,3.58,3.5888,3.5888,3.5895,3.5838,3.584,3.5841,3.5884,0,3.5342,3.5423,3.5447,3.5513,3.5554,3.5567,3.5604,3.5639,3.5662,3.5697,3.5721,3.5762,3.5758,3.5774,3.5799,3.5825,3.5852,3.5822,3.5869,3.5871,3.5858,3.5903,3.5905,3.5944,3.589,3.5891,3.5892,0,3.5411,3.5451,3.5522,3.5567,3.5585,3.5618,3.5662,3.5697,3.5735,3.5749,3.5778,3.5791,3.5833,3.582,3.5877,3.5856,3.5876,3.5891,3.5893,3.5899,3.5883,3.5909,3.5958,3.5963,3.5902,3.5901,3.59,0,3.5432,3.5504,3.5555,3.5576,3.5631,3.5653,3.5676,3.5714,3.574,3.5777,3.5793,3.5834,3.5857,3.5887,3.5909,3.5897,3.5963,3.5952,3.5974,3.5973,3.5988,3.5987,3.604,3.6001,3.6001,3.6001,3.6001,0,3.5484,3.5526,3.5566,3.5597,3.5643,3.5668,3.5713,3.5736,3.5768,3.5802,3.5816,3.5847,3.5874,3.5908,3.5925,3.5968,3.5978,3.5989,3.5993,3.5988,3.5986,3.6002,3.5999,3.6003,3.6002,3.6002,3.6002,0,3.5517,3.5545,3.5601,3.5648,3.566,3.5692,3.573,3.5759,3.578,3.5823,3.5834,3.5867,3.5907,3.5932,3.5982,3.5993,3.6041,3.6044,3.6028,3.603,3.605,3.6048,3.6115,3.6124,3.608,3.608,3.608,0,3.5548,3.5581,3.563,3.5654,3.5678,3.5717,3.5743,3.5767,3.5794,3.5838,3.5861,3.5902,3.5936,3.5998,3.6026,3.6063,3.6067,3.6088,3.6073,3.6066,3.6066,3.6064,3.6066,3.6091,3.6091,3.6091,3.6091,0,3.56,3.5611,3.565,3.5692,3.5723,3.5757,3.5791,3.5809,3.5839,3.5867,3.5909,3.5935,3.5986,3.6025,3.6065,3.6086,3.6093,3.6096,3.6103,3.6098,3.6087,3.6092,3.6034,3.6094,3.6094,3.6094,3.6094,3.6094,3.5632,3.5661,3.5699,3.574,3.5768,3.5799,3.5828,3.5852,3.5888,3.5932,3.5943,3.5986,3.602,3.6074,3.6095,3.6127,3.6124,3.6134,3.6137,3.6139,3.6139,3.6082,3.6134,3.6134,3.6134,3.6134,3.6134,0,3.5683,3.5708,3.5746,3.5793,3.5824,3.5828,3.5865,3.589,3.5928,3.596,3.5993,3.6038,3.6076,3.6105,3.6143,3.6162,3.6166,3.6171,3.617,3.6174,3.614,3.613,3.6167,3.6167,3.6167,3.6167,3.6167,3.6167,3.5714,3.5762,3.5778,3.5838,3.5862,3.5905,3.5925,3.5952,3.5977,3.6028,3.606,3.6079,3.6108,3.6148,3.6181,3.6188,3.6201,3.6205,3.6213,3.6181,3.6177,3.6174,3.6164,3.6208,3.6208,3.6245,3.6245,3.6245]}]]